sat.trackr.live / text

‹ back to catalog

STARLINK-30927

NORAD 58382 · 2023-178J

PAYLOAD ACTIVE UNKNOWN

§ Identity

Operator
Country
US
Launch date
2023-11-20
Launch site
AFWTR
Launch vehicle
Mass (kg)
RCS (m²)

Purposes: comms

External: N2YO · Heavens-Above · Gunter

§ Orbital elements

Epoch: 2026-09-20T11:37:27.228288Z

Period
93.85 min
Inclination
53.1594°
Eccentricity
0.0001056
Mean motion
15.34387686 rev/d
Perigee alt
462.0 km
Apogee alt
463.5 km
Semi-major
6,840.9 km
B*
3.4136e-5
RAAN
172.1411°
Arg perigee
87.4113°
Mean anomaly
272.7011°
Rev number
15,975

§ Raw data

STARLINK-309271 58382U 23178J   26263.48434292  .00000777  00000+0  34136-4 0  99932 58382  53.1594 172.1411 0001056  87.4113 272.7011 15.34387686159756

JSON: /api/v1/satellites/58382 · /tle

For live sub-satellite position, see the globe view (requires WebGL).

§ Visibility from observer

Set your observer location to see the next 7 days of passes ≥ 10°. The values pass through the URL so the page stays shareable.

No JS? Fill the form by hand. The geolocation button needs JavaScript.